{"data":{"norad_id":56718,"epoch":"2026-05-24T20:01:11.239104Z","epoch_age_seconds":89129,"freshness":"FRESH","line1":"1 56718U 23068J   26144.83415786 -.00000116  00000+0 -34172-3 0  9994","line2":"2 56718  87.8994 263.8460 0002285 111.8378 248.2996 13.15547228146389","mean_motion":13.15547228,"eccentricity":0.0002285,"inclination_deg":87.8994,"raan_deg":263.846,"arg_perigee_deg":111.8378,"mean_anomaly_deg":248.2996,"bstar":-0.00034172,"rev_number":14638,"period_min":109.46015234962,"perigee_km":1200.0438354337,"apogee_km":1203.5078556041,"semimajor_km":7579.9128455189,"source":"CELESTRAK","updated_at":"2026-05-25T13:38:22.744456Z"}}